[[{"header":{"parameterUnit":"m.s-1","parameterCategory":1,"la1":30.2991,"la2":30.254,"lo1":-89.0895,"lo2":-89.0444,"dy":0.0017,"dx":0.0017,"nx":28,"ny":28,"refTime":"2023-06-18T21:00:00:Z","depth":0,"parameterNumber":2,"parameterNumberName":"U-component_of_WINDS"},"data":[0,0,0,0,0,0,0,0,0,0,0,0,0,0,0,0,0,0,0,0,0,0,0,0,0,0,0,0,0,0,0,0,0,0,0,0,0,0,0,0,0,0,0,0,0,0,0,0,0,0,0,0,0,0,0,0,0,0,4.0375,4.0373,0,4.0208,4.0206,4.0204,4.0143,4.0144,4.0144,4.0145,3.9976,3.9971,3.9966,0,0,0,0,0,0,0,0,0,0,0,0,0,4.0647,4.0642,4.0375,4.0373,4.0371,4.0208,4.0206,4.0204,4.0143,4.0144,4.0144,4.0145,3.9977,3.9971,3.9965,0,0,0,0,0,0,0,0,0,0,0,0,0,4.051,4.0641,4.0375,4.0321,4.0314,4.0209,4.0206,4.0203,4.0143,4.0144,4.0145,4.0145,3.9979,3.9972,3.9964,3.9901,0,0,3.9941,3.9938,0,0,0,0,0,0,0,0,4.0517,4.05,4.0331,4.0324,4.0317,4.0197,4.024,4.0102,4.0143,4.0208,4.0145,4.0146,4.0049,4.0036,4.0002,3.9893,3.9886,3.9941,3.9936,3.9933,3.9931,0,0,0,0,0,0,0,4.0527,4.0507,4.0309,4.0329,4.032,4.0307,4.0288,4.0214,4.0126,4.0202,4.0198,4.0179,4.0045,4.001,3.9998,3.9884,3.9941,3.9934,3.993,3.9927,3.9721,3.972,0,0,0,0,0,0,4.0545,4.0515,4.0314,4.0304,4.0421,4.0301,4.028,4.0235,4.0126,4.0111,4.0178,4.0176,4.0022,4.0007,3.9992,3.9914,3.9933,3.9926,3.9922,3.9722,3.9721,3.972,0,0,0,0,0,0,4.0551,4.0528,4.0321,4.0408,4.0381,4.0296,4.0245,4.0231,4.0196,4.0108,4.0092,4.0158,4.0022,4.0002,3.9925,3.9907,3.9922,3.9916,3.9723,3.9722,3.972,3.9755,0,0,0,0,0,0,4.0559,4.053,4.0503,4.0408,4.0376,4.0255,4.0244,4.0227,4.0183,4.0179,4.0085,4.007,4.0021,3.9937,3.9918,3.9897,3.991,3.9724,3.9722,3.9721,3.9755,3.9755,3.9755,0,0,0,0,0,4.0569,4.0519,4.0502,4.0478,4.0341,4.0254,4.0236,4.0181,4.0181,4.0155,4.01,4.0073,3.9913,3.993,3.9908,3.9884,3.9725,3.9723,3.9721,3.9755,3.9755,3.9755,0,0,0,0,0,0,4.0613,4.0505,4.0485,4.0402,4.0338,4.0244,4.0208,4.0182,4.0116,4.0115,4.005,4.003,3.9959,3.9914,3.9935,3.9821,3.9818,3.9811,3.9852,3.9851,3.9851,3.9862,3.9904,0,0,0,0,0,4.0614,4.0551,4.0461,4.0397,4.0366,4.0293,4.0253,4.0217,4.0148,4.012,4.0059,3.9994,3.993,3.9888,3.9823,3.975,3.9731,3.9724,3.9724,3.9724,3.9719,3.9681,3.9678,3.9713,3.9713,3.9713,0,0,4.0612,4.0546,4.051,4.0404,4.035,4.0289,4.027,4.0205,4.016,4.011,4.0034,3.9988,3.9912,3.9838,3.9802,3.9798,3.9706,3.9721,3.9722,3.9716,3.9679,3.9675,3.9673,3.9711,3.9712,3.9712,0,0,4.058,4.0523,4.0465,4.0412,4.0331,4.0285,4.0272,4.0183,4.015,4.0073,4.0036,3.9984,3.9872,3.9821,3.978,3.9737,3.9711,3.9718,3.9717,3.9681,3.9678,3.9676,3.9662,3.9658,3.9714,3.9714,3.9714,0,4.0589,4.0494,4.0438,4.0377,4.0333,4.0287,4.023,4.0182,4.0085,4.0057,4.0054,3.9918,3.9863,3.9778,3.9769,3.9737,3.9722,3.9727,3.9683,3.968,3.9676,3.9663,3.9658,3.9715,3.9715,3.9715,3.9715,0,4.0511,4.0447,4.041,4.0318,4.0271,4.0212,4.015,4.0109,4.0079,4.0034,3.996,3.9894,3.9817,3.9795,3.9764,3.9707,3.9708,3.9696,3.9691,3.9676,3.9662,3.9656,3.9717,3.9717,3.9716,3.9716,0,0,4.0495,4.0379,4.0366,4.0326,4.0237,4.0187,4.013,4.0055,4.0023,3.9959,3.991,3.9821,3.9811,3.9765,3.9729,3.9698,3.9672,3.969,3.9687,3.969,3.961,3.9619,3.9614,3.9656,3.9655,3.9654,3.9617,0,4.0451,4.0343,4.0295,4.0209,4.0151,4.0112,4.0062,4.0003,3.9962,3.9909,3.9863,3.9802,3.9791,3.9764,3.9732,3.9682,3.9655,3.9684,3.9611,3.9609,3.963,3.9606,3.9614,3.9582,3.9611,3.961,3.9609,0,4.0383,4.0322,4.0231,4.0155,4.0129,4.0084,4.0015,3.9964,3.99,3.9872,3.9825,3.9792,3.9733,3.9735,3.9655,3.9676,3.9645,3.9617,3.9614,3.9604,3.9607,3.9596,3.957,3.9565,3.96,3.96,3.9601,0,4.0383,4.0278,4.0211,4.0178,4.0086,4.0057,4.0018,3.9954,3.9915,3.9856,3.983,3.9766,3.973,3.9682,3.9634,3.964,3.956,3.9557,3.9537,3.9538,3.9519,3.9521,3.9488,3.9501,3.9501,3.9501,3.9501,0,4.0339,4.0285,4.021,4.0169,4.011,4.0057,4.0001,3.9959,3.9904,3.9856,3.9819,3.9775,3.9715,3.9665,3.9628,3.9569,3.9553,3.9531,3.9521,3.9533,3.9536,3.951,3.9511,3.95,3.95,3.95,3.95,0,4.0326,4.0274,4.0199,4.012,4.01,4.006,3.9993,3.9954,3.9913,3.9854,3.9837,3.9773,3.9713,3.9662,3.9582,3.9557,3.9497,3.9485,3.9518,3.9513,3.9496,3.9498,3.9444,3.9436,3.9455,3.9455,3.9455,0,4.03,4.0259,4.0177,4.0143,4.0105,4.0049,4.001,3.9959,3.992,3.9848,3.9818,3.9756,3.9702,3.9609,3.9557,3.9497,3.9484,3.947,3.9475,3.949,3.9485,3.9488,3.9485,3.9469,3.9469,3.9469,3.9469,0,4.0261,4.0239,4.0183,4.012,4.0075,4.0022,3.9969,3.9944,3.9884,3.9843,3.9781,3.9741,3.9662,3.9601,3.9538,3.95,3.9475,3.9469,3.9461,3.9472,3.9493,3.9483,3.9518,3.9469,3.9469,3.9469,3.9469,3.9469,4.0241,4.0204,4.0142,4.0083,4.0039,3.9992,3.9952,3.9908,3.9856,3.9787,3.9762,3.97,3.9643,3.9555,3.9518,3.9471,3.9467,3.9455,3.9452,3.945,3.9452,3.9503,3.9459,3.9459,3.9459,3.9459,3.9459,0,4.02,4.016,4.0107,4.0035,3.999,3.9973,3.9915,3.9879,3.9825,3.9773,3.9724,3.9656,3.9599,3.9545,3.9486,3.9459,3.9447,3.9445,3.9446,3.9439,3.9458,3.9471,3.9457,3.9457,3.9457,3.9457,3.9457,3.9457,4.0174,4.0111,4.0083,4.0,3.9961,3.99,3.9869,3.9827,3.9786,3.9712,3.9665,3.963,3.9579,3.9517,3.9466,3.9452,3.9432,3.9434,3.9417,3.9436,3.9437,3.9437,3.9449,3.943,3.943,3.9401,3.9401,3.9401]},{"header":{"parameterUnit":"m.s-1","parameterCategory":1,"la1":30.2991,"la2":30.254,"lo1":-89.0895,"lo2":-89.0444,"dy":0.0017,"dx":0.0017,"nx":28,"ny":28,"refTime":"2023-06-18T21:00:00:Z","depth":0,"parameterNumber":3,"parameterNumberName":"V-component_of_WINDS"},"data":[0,0,0,0,0,0,0,0,0,0,0,0,0,0,0,0,0,0,0,0,0,0,0,0,0,0,0,0,0,0,0,0,0,0,0,0,0,0,0,0,0,0,0,0,0,0,0,0,0,0,0,0,0,0,0,0,0,0,3.2396,3.2399,0,3.2704,3.2707,3.2711,3.2777,3.2775,3.2772,3.277,3.3092,3.3102,3.3113,0,0,0,0,0,0,0,0,0,0,0,0,0,3.1868,3.1878,3.2395,3.2399,3.2403,3.2703,3.2708,3.2712,3.2777,3.2774,3.2772,3.2769,3.3088,3.3101,3.3114,0,0,0,0,0,0,0,0,0,0,0,0,0,3.2129,3.1881,3.2395,3.2472,3.2482,3.2702,3.2708,3.2713,3.2778,3.2774,3.2771,3.2768,3.3084,3.31,3.3115,3.3283,0,0,3.3164,3.3171,0,0,0,0,0,0,0,0,3.2114,3.2148,3.2456,3.2467,3.2478,3.2698,3.264,3.2904,3.2779,3.2666,3.277,3.2766,3.2964,3.299,3.3055,3.3298,3.3312,3.3166,3.3176,3.3182,3.3187,0,0,0,0,0,0,0,3.2096,3.2136,3.2518,3.2461,3.2474,3.2493,3.2526,3.269,3.283,3.2675,3.2681,3.2716,3.2969,3.304,3.3063,3.3317,3.3165,3.318,3.319,3.3196,3.3714,3.3718,0,0,0,0,0,0,3.2064,3.212,3.2508,3.2527,3.2284,3.2505,3.2542,3.2631,3.2829,3.2855,3.2719,3.2718,3.3014,3.3044,3.3075,3.3284,3.3182,3.3197,3.3207,3.3709,3.3714,3.3719,0,0,0,0,0,0,3.2052,3.2098,3.2495,3.2325,3.2377,3.2518,3.2617,3.2639,3.2709,3.2861,3.2887,3.2764,3.3012,3.3052,3.3231,3.3296,3.3205,3.3219,3.3705,3.3711,3.3717,3.3704,0,0,0,0,0,0,3.2037,3.2093,3.2157,3.2326,3.2386,3.2644,3.2621,3.2648,3.2736,3.2738,3.2911,3.2937,3.3013,3.3206,3.3246,3.3317,3.3232,3.3699,3.3707,3.3715,3.3699,3.3709,3.3718,0,0,0,0,0,3.2018,3.2142,3.216,3.2206,3.2468,3.2648,3.2682,3.2765,3.2741,3.2807,3.2905,3.2931,3.3283,3.3224,3.327,3.3346,3.3696,3.3705,3.3714,3.3695,3.3707,3.3717,0,0,0,0,0,0,3.1979,3.2166,3.2187,3.237,3.2492,3.2658,3.2744,3.2775,3.2909,3.2905,3.3005,3.3044,3.3216,3.3299,3.323,3.3519,3.3488,3.3507,3.3458,3.3471,3.348,3.3456,3.3245,0,0,0,0,0,3.1991,3.2119,3.2277,3.2422,3.2483,3.2602,3.2684,3.2737,3.2869,3.2922,3.3033,3.3161,3.3301,3.339,3.3527,3.3712,3.3751,3.3787,3.3796,3.3803,3.3818,3.3922,3.394,3.3749,3.3749,3.3749,0,0,3.2019,3.2136,3.2212,3.2418,3.2519,3.2651,3.2646,3.2786,3.2886,3.2944,3.3118,3.3204,3.3354,3.3536,3.3622,3.3611,3.3879,3.3815,3.3819,3.3831,3.3934,3.3952,3.3968,3.3756,3.3755,3.3754,0,0,3.2136,3.2237,3.237,3.2471,3.2624,3.2703,3.2735,3.2897,3.2956,3.3132,3.3178,3.33,3.3538,3.3643,3.3727,3.3884,3.3914,3.3927,3.3974,3.4075,3.409,3.4104,3.416,3.4179,3.3941,3.3941,3.3941,0,3.2151,3.235,3.2435,3.2573,3.2663,3.272,3.2856,3.2951,3.3141,3.3202,3.3187,3.3486,3.3592,3.3799,3.3837,3.3904,3.3944,3.3907,3.408,3.4095,3.411,3.4165,3.4186,3.3942,3.3942,3.3942,3.3942,0,3.2361,3.2499,3.2588,3.2768,3.2869,3.3005,3.3112,3.3204,3.3249,3.333,3.351,3.3637,3.3801,3.3855,3.3901,3.407,3.4058,3.406,3.4031,3.4127,3.418,3.4202,3.3942,3.3942,3.3942,3.3942,0,0,3.2462,3.2687,3.2719,3.2801,3.2974,3.3083,3.3223,3.3381,3.3458,3.3588,3.3708,3.3908,3.3912,3.4008,3.4066,3.4155,3.4272,3.4147,3.4152,3.4166,3.4466,3.4463,3.4486,3.4292,3.4296,3.43,3.4454,0,3.26,3.2849,3.293,3.3138,3.3267,3.3324,3.3446,3.3566,3.3646,3.3768,3.3858,3.3998,3.3991,3.405,3.414,3.4238,3.4333,3.4228,3.4407,3.4412,3.4367,3.4514,3.4512,3.465,3.4475,3.4479,3.4481,0,3.2794,3.2925,3.3145,3.3302,3.3359,3.3467,3.3619,3.3735,3.3874,3.3926,3.4033,3.4085,3.4235,3.4197,3.4406,3.4332,3.4411,3.447,3.4478,3.4498,3.4452,3.4538,3.4697,3.4717,3.4515,3.4513,3.451,0,3.2845,3.3077,3.3239,3.3308,3.3495,3.357,3.3651,3.3786,3.3876,3.401,3.407,3.422,3.4302,3.4418,3.451,3.4474,3.4711,3.4681,3.476,3.4757,3.4807,3.4803,3.498,3.4857,3.4857,3.4856,3.4856,0,3.299,3.3123,3.3264,3.3363,3.3514,3.3607,3.3755,3.384,3.396,3.4078,3.4137,3.4248,3.4362,3.4488,3.4561,3.4723,3.476,3.4808,3.4826,3.4803,3.4796,3.4855,3.4848,3.4862,3.4861,3.486,3.4859,0,3.3072,3.3172,3.3352,3.3515,3.3559,3.3663,3.3803,3.3903,3.3985,3.4134,3.4175,3.4305,3.4457,3.4559,3.4754,3.4803,3.498,3.4996,3.4932,3.4941,3.5014,3.5006,3.5236,3.5271,3.5123,3.5124,3.5126,0,3.3158,3.3261,3.3435,3.3517,3.3599,3.3732,3.3824,3.392,3.4014,3.418,3.426,3.4415,3.4544,3.4784,3.4897,3.5046,3.5067,3.5137,3.509,3.5063,3.5069,3.5061,3.5072,3.5144,3.5145,3.5146,3.5147,0,3.33,3.3344,3.3474,3.3621,3.3729,3.385,3.3972,3.4037,3.4155,3.4258,3.4412,3.4512,3.471,3.4864,3.5024,3.5111,3.515,3.5161,3.5187,3.5165,3.5124,3.5148,3.4952,3.5155,3.5155,3.5154,3.5153,3.5153,3.3387,3.3482,3.3618,3.3761,3.3863,3.3975,3.4077,3.4172,3.4302,3.4469,3.4519,3.468,3.4818,3.5037,3.5126,3.5255,3.5249,3.5286,3.5296,3.5304,3.5304,3.5103,3.5284,3.5284,3.5284,3.5284,3.5284,0,3.3532,3.3623,3.3753,3.3921,3.4034,3.4059,3.4195,3.4288,3.4429,3.4553,3.4678,3.4857,3.5007,3.5131,3.5287,3.5366,3.5387,3.5403,3.5399,3.5418,3.5301,3.5262,3.5383,3.5383,3.5383,3.5383,3.5383,3.5383,3.3621,3.3782,3.3843,3.4056,3.4147,3.4304,3.438,3.4484,3.4584,3.478,3.4904,3.4984,3.5109,3.5274,3.5413,3.5446,3.5501,3.5513,3.555,3.5438,3.5426,3.5416,3.538,3.5524,3.5524,3.5657,3.5659,3.5659]}]]